EW6434 Weather Reports


Display with metric or nautical units.
time (UTC)temp
F
wind
direction
speed
MPH
gust
MPH
rain 1hr
in
rain 24hr
in
rain mn
in
humidity
%
barometer
mb
20260509150041 54 308 2.0 6.0 0.00 0.00 0.00 29 1011.8
20260509144532 53 95 0.0 11.0 0.00 0.00 0.00 30 1011.9
20260509143029 52 335 1.0 7.0 0.00 0.00 0.00 31 1012.1
20260509141524 51 46 2.0 8.0 0.00 0.00 0.00 32 1012.1
20260509140020 48 220 1.0 7.0 0.00 0.00 0.00 35 1012.2
20260509134516 42 314 1.0 8.0 0.00 0.00 0.00 45 1012.2
20260509133014 37 139 0.0 0.0 0.00 0.00 0.00 57 1012.2
20260509131513 36 219 0.0 0.0 0.00 0.00 0.00 56 1012.1
20260509130012 36 219 0.0 0.0 0.00 0.00 0.00 57 1012.0
20260509124511 34 124 0.0 0.0 0.00 0.00 0.00 61 1011.8
20260509123011 34 90 0.0 1.0 0.00 0.00 0.00 64 1011.7
20260509121513 34 251 0.0 0.0 0.00 0.00 0.00 65 1011.6
20260509120007 34 251 0.0 1.0 0.00 0.00 0.00 65 1011.5
20260509114510 34 274 0.0 0.0 0.00 0.00 0.00 65 1011.5
20260509113006 35 269 0.0 1.0 0.00 0.00 0.00 64 1011.2
20260509111505 35 254 0.0 0.0 0.00 0.00 0.00 63 1011.4
20260509110003 35 275 0.0 2.0 0.00 0.00 0.00 66 1011.4
20260509104503 35 266 0.0 3.0 0.00 0.00 0.00 68 1011.7
20260509103104 35 272 0.0 1.0 0.00 0.00 0.00 67 1011.8
20260509101603 35 304 0.0 4.0 0.00 0.00 0.00 67 1011.8
20260509100101 34 274 0.0 1.0 0.00 0.00 0.00 70 1011.9
20260509094557 35 71 0.0 0.0 0.00 0.00 0.00 69 1011.9
20260509093057 35 281 0.0 1.0 0.00 0.00 0.00 68 1011.9
20260509091556 34 259 0.0 0.0 0.00 0.00 0.00 68 1011.9
20260509090056 35 259 0.0 2.0 0.00 0.00 0.00 67 1011.7
20260509084552 35 61 1.0 2.0 0.00 0.00 0.00 67 1011.9
20260509083057 35 333 0.0 1.0 0.00 0.00 0.00 68 1011.9
20260509081548 35 86 0.0 1.0 0.00 0.00 0.00 66 1011.9
20260509080046 36 144 0.0 1.0 0.00 0.00 0.00 66 1011.8
20260509074546 36 268 0.0 0.0 0.00 0.00 0.00 64 1012.0
20260509073042 36 84 0.0 1.0 0.00 0.00 0.00 64 1012.4
20260509071541 37 76 0.0 1.0 0.00 0.00 0.00 63 1012.4
20260509070041 37 66 0.0 2.0 0.00 0.00 0.00 64 1012.5
20260509064538 37 89 0.0 1.0 0.00 0.00 0.00 62 1012.6
20260509063033 38 249 0.0 0.0 0.00 0.00 0.00 61 1012.7
20260509061532 38 267 0.0 1.0 0.00 0.00 0.00 60 1012.8
20260509060035 38 261 0.0 0.0 0.00 0.00 0.00 60 1012.7
20260509054528 39 250 0.0 0.0 0.00 0.00 0.00 58 1012.7
20260509053028 40 243 0.0 2.0 0.00 0.00 0.00 57 1012.7
20260509051527 40 220 0.0 0.0 0.00 0.00 0.00 56 1012.6
20260509050042 41 262 0.0 0.0 0.00 0.00 0.00 56 1012.7
20260509044526 42 257 0.0 1.0 0.00 0.00 0.00 53 1012.8
20260509043026 42 278 0.0 1.0 0.00 0.00 0.00 54 1012.8
20260509041526 43 269 0.0 1.0 0.00 0.00 0.00 51 1012.7
20260509040025 44 262 0.0 2.0 0.00 0.00 0.00 51 1012.6
20260509034524 45 46 0.0 1.0 0.00 0.00 0.00 48 1012.4
20260509033024 46 260 0.0 1.0 0.00 0.00 0.00 46 1012.1
20260509031531 48 233 0.0 3.0 0.00 0.00 0.00 41 1011.9
20260509030032 49 36 0.0 3.0 0.00 0.00 0.00 38 1011.7
20260509024534 51 263 0.0 2.0 0.00 0.00 0.00 35 1011.3
20260509023022 52 217 0.0 1.0 0.00 0.00 0.00 34 1011.1
20260509021522 54 262 0.0 3.0 0.00 0.00 0.00 31 1010.8
20260509020020 56 221 0.0 3.0 0.00 0.00 0.00 27 1010.6
20260509014520 57 273 1.0 4.0 0.00 0.00 0.00 27 1010.3
20260509013026 58 230 0.0 2.0 0.00 0.00 0.00 26 1010.2
20260509011519 60 258 0.0 1.0 0.00 0.00 0.00 24 1010.0
20260509010023 62 234 0.0 4.0 0.00 0.00 0.00 22 1009.9
20260509004519 64 154 0.0 3.0 0.00 0.00 0.00 24 1009.8
20260509003016 63 179 1.0 4.0 0.00 0.00 0.00 23 1009.9
20260509001516 63 245 1.0 4.0 0.00 0.00 0.00 26 1009.8
20260509000016 64 255 0.0 4.0 0.00 0.00 0.00 25 1009.9
20260508234515 62 240 1.0 6.0 0.00 0.00 0.00 27 1010.0
20260508233014 62 203 0.0 5.0 0.00 0.00 0.00 27 1010.0
20260508231513 64 249 2.0 6.0 0.00 0.00 0.00 25 1010.1
20260508230012 65 140 2.0 7.0 0.00 0.00 0.00 23 1010.1
20260508224510 62 153 0.0 4.0 0.00 0.00 0.00 27 1010.2
20260508223021 61 229 1.0 3.0 0.00 0.00 0.00 27 1010.3
20260508221509 61 216 0.0 5.0 0.00 0.00 0.00 26 1010.5
20260508220020 60 217 1.0 6.0 0.00 0.00 0.00 27 1010.6
20260508214506 61 75 0.0 3.0 0.00 0.00 0.00 26 1010.7
20260508213118 62 264 0.0 3.0 0.00 0.00 0.00 26 1010.6
20260508211502 64 184 1.0 15.0 0.00 0.00 0.00 24 1010.9
20260508210101 63 125 1.0 9.0 0.00 0.00 0.00 23 1011.0
20260508204622 62 111 1.0 11.0 0.00 0.00 0.00 26 1011.1
20260508203102 63 243 1.0 5.0 0.00 0.00 0.00 24 1011.2
20260508201610 63 208 1.0 11.0 0.00 0.00 0.00 22 1011.2
20260508200126 63 217 1.0 7.0 0.00 0.00 0.00 25 1011.3
20260508194556 63 273 5.0 18.0 0.00 0.00 0.00 24 1011.3
20260508193057 63 266 2.0 7.0 0.00 0.00 0.00 23 1011.4
20260508191552 63 78 4.0 9.0 0.00 0.00 0.00 22 1011.6
20260508190057 62 189 2.0 9.0 0.00 0.00 0.00 25 1011.6
20260508184548 63 150 2.0 7.0 0.00 0.00 0.00 25 1011.6
20260508183049 62 90 2.0 5.0 0.00 0.00 0.00 25 1012.0
20260508181606 61 202 3.0 0.0 0.00 0.00 0.00 26 1012.0
20260508180052 61 233 2.0 11.0 0.00 0.00 0.00 26 1012.3
20260508174540 60 41 1.0 6.0 0.00 0.00 0.00 28 1012.4
20260508173040 60 65 3.0 10.0 0.00 0.00 0.00 30 1012.2
20260508171537 59 155 1.0 8.0 0.00 0.00 0.00 28 1012.6
20260508170031 58 238 1.0 8.0 0.00 0.00 0.00 29 1012.9
20260508164535 58 191 2.0 10.0 0.00 0.00 0.00 28 1013.0
20260508163022 58 274 1.0 8.0 0.00 0.00 0.00 28 1013.0
20260508161519 57 175 1.0 11.0 0.00 0.00 0.00 30 1013.4
20260508160022 56 207 2.0 9.0 0.00 0.00 0.00 31 1013.7
20260508154506 55 139 2.0 12.0 0.00 0.00 0.00 33 1014.1